Погода в Вила-Реал

Португалия     41°17′53″N   7°44′56″W
темп.,
°C
ветер,
м/с
пор.,
м/с
влажн.,
%
обл.,
%
осадки,
мм/ч
давл.,
гПа
погр.,
м
3 августа, вт
вт301:00+19зсз1159100 0.0 101772
04:00+18зсз115787 0.0 101644
07:00+17зсз11605 0.0 101862
10:00+22з124386 0.0 1018642
13:00+27зсз342391 0.0 10161410
16:00+27зсз5626100 0.0 10151467
19:00+23з4646100 0.0 1016917
22:00+18з3474100 0.0 1018414
4 августа, ср
ср401:00+17з238668 0.0 1018328
04:00+17з2285100 0.0 1017379
07:00+17з228795 0.1 1018338
10:00+20зсз236842 0.0 1018825
13:00+25зсз45420 0.1 10171579
16:00+28зсз66315 0.0 10161933
19:00+24з45460 0.0 10171044
22:00+18з23670 0.0 1019330
5 августа, чт
чт501:00+16з22752 0.0 1019181
04:00+15зсз12770 0.0 1018125
07:00+15з12750 0.0 101898
10:00+21зсз23382 0.0 1018518
13:00+26з46390 0.0 10161240
16:00+26з59424 0.0 10151318
19:00+23з47540 0.0 10151088
22:00+18з34742 0.0 1016564
6 августа, пт
пт601:00+16з228114 0.0 1015393
04:00+15зсз22848 0.0 1014256
07:00+14з128620 0.0 1014220
10:00+18з22600 0.0 1014643
13:00+24з34325 0.0 10121224
16:00+24з563040 0.0 10111320
19:00+20з4644100 0.0 1011977
22:00+15з466937 0.0 1013682
7 августа, сб
сб701:00+14з35748 0.0 1014395
04:00+13з2382100 0.0 1013249
07:00+13зсз2284100 0.0 1014231
10:00+18зсз235499 0.0 10141051
13:00+22зсз4537100 0.0 10131648
16:00+24зсз6631100 0.0 10121876
19:00+21з5644100 0.0 10131187
22:00+16зсз3361100 0.0 1015494